Погода в Северо-Енисейском

Россия / Красноярский край     60°22′26″N   93°01′45″E
темп.,
°C
ветер,
м/с
пор.,
м/с
влажн.,
%
обл.,
%
осадки,
мм/ч
давл.,
гПа
погр.,
м
3 августа, вт
вт301:00+11вюв119491 0.0 100610
04:00+10юв1195100 0.0 100611
07:00+14юв1280100 0.0 1006105
10:00+21ююз12484 0.0 10051453
13:00+21юз2247100 0.1 10051333
16:00+22зюз234276 0.0 10061899
19:00+18юз1263100 0.0 100750
22:00+16ю116793 0.0 100811
4 августа, ср
ср401:00+12ююв11811 0.0 100910
04:00+14вюв116996 0.0 100911
07:00+16юв116695 0.0 100941
10:00+22ссв124314 0.0 1009920
13:00+25св233789 0.0 10082422
16:00+22ссв255584 0.0 1008230
19:00+20св2660100 0.0 1007150
22:00+18в2266100 0.0 100834
5 августа, чт
чт501:00+17всв227089 0.0 100730
04:00+14всв22836 0.0 100714
07:00+17всв137032 0.0 1007153
10:00+22всв465252 0.0 1006696
13:00+24в474464 0.0 10061115
16:00+24св254214 0.0 1005406
19:00+25всв383787 0.0 1005454
22:00+20в2104910 0.0 1006254
6 августа, пт
пт601:00+15вюв11695 0.0 100711
04:00+14всв11735 0.0 100711
07:00+17св1265100 0.0 100795
10:00+23св35489 0.0 1007797
13:00+26св453573 0.0 10062859
16:00+25св573555 0.0 10062402
19:00+20вюв3105589 0.0 1008670
22:00+16всв2273100 0.0 100927
7 августа, сб
сб701:00+14св118116 0.0 100911
04:00+13ссв11886 0.0 101011
07:00+17ссв14725 0.0 1010183
10:00+23св47455 0.0 1009890
13:00+25в463664 0.0 10092579
16:00+26всв363155 0.0 10082587
19:00+24в373513 0.0 1009460
22:00+16ююв116993 0.0 101011